| time (UTC) | temp C | wind direction | speed KPH | gust KPH | rain 1hr cm | rain 24hr cm | rain mn cm | humidity % | barometer mb |
| 20260901121524 | 22 | 266 | 0.0 | 3.2 | 0.03 | 0.66 | 0.03 | 95 | 1014.3 |
| 20260901120704 | 22 | 0.0 | 0.0 | 0.03 | 0.66 | 0.03 | 95 | 1014.5 | |
| 20260901115524 | 22 | 0.0 | 0.0 | 0.00 | 0.64 | 0.00 | 95 | 1014.5 | |
| 20260901114704 | 22 | 282 | 0.0 | 1.6 | 0.00 | 0.64 | 0.00 | 95 | 1014.5 |
| 20260901113524 | 22 | 274 | 0.0 | 1.6 | 0.00 | 0.64 | 0.00 | 95 | 1014.6 |
| 20260901112525 | 22 | 0.0 | 0.0 | 0.00 | 0.64 | 0.00 | 95 | 1014.7 | |
| 20260901111525 | 22 | 254 | 0.0 | 0.0 | 0.00 | 0.64 | 0.00 | 95 | 1014.8 |
| 20260901110524 | 22 | 315 | 0.0 | 1.6 | 0.00 | 0.64 | 0.00 | 95 | 1014.9 |
| 20260901105525 | 22 | 283 | 1.6 | 3.2 | 0.00 | 0.64 | 0.00 | 95 | 1015.0 |
| 20260901104705 | 22 | 289 | 0.0 | 1.6 | 0.00 | 0.64 | 0.00 | 95 | 1015.0 |
| 20260901103526 | 22 | 321 | 0.0 | 1.6 | 0.00 | 0.64 | 0.00 | 95 | 1015.1 |
| 20260901102525 | 22 | 0.0 | 0.0 | 0.00 | 0.64 | 0.00 | 95 | 1015.3 | |
| 20260901101526 | 22 | 303 | 0.0 | 1.6 | 0.00 | 0.64 | 0.00 | 95 | 1015.4 |
| 20260901100526 | 22 | 30 | 0.0 | 1.6 | 0.00 | 0.64 | 0.00 | 95 | 1015.4 |
| 20260901095526 | 23 | 0.0 | 0.0 | 0.00 | 0.64 | 0.64 | 94 | 1015.4 | |
| 20260901094527 | 22 | 348 | 0.0 | 1.6 | 0.00 | 0.64 | 0.64 | 94 | 1015.5 |
| 20260901093526 | 22 | 282 | 0.0 | 1.6 | 0.00 | 0.64 | 0.64 | 94 | 1015.6 |
| 20260901092527 | 22 | 285 | 0.0 | 1.6 | 0.00 | 0.64 | 0.64 | 94 | 1015.7 |
| 20260901091526 | 22 | 349 | 1.6 | 4.8 | 0.00 | 0.64 | 0.64 | 94 | 1015.7 |
| 20260901090527 | 22 | 162 | 0.0 | 1.6 | 0.00 | 0.64 | 0.64 | 94 | 1015.7 |
| 20260901085527 | 22 | 359 | 0.0 | 0.0 | 0.00 | 0.64 | 0.64 | 93 | 1015.8 |
| 20260901084527 | 22 | 294 | 0.0 | 1.6 | 0.00 | 0.64 | 0.64 | 93 | 1015.8 |
| 20260901083707 | 22 | 296 | 0.0 | 1.6 | 0.00 | 0.64 | 0.64 | 94 | 1015.9 |
| 20260901082527 | 23 | 32 | 0.0 | 1.6 | 0.00 | 0.64 | 0.64 | 94 | 1015.9 |
| 20260901081528 | 23 | 263 | 0.0 | 3.2 | 0.00 | 0.64 | 0.64 | 94 | 1016.0 |
| 20260901080528 | 23 | 245 | 0.0 | 1.6 | 0.00 | 0.64 | 0.64 | 95 | 1016.0 |
| 20260901075529 | 23 | 220 | 0.0 | 1.6 | 0.00 | 0.69 | 0.64 | 95 | 1016.0 |
| 20260901074527 | 23 | 158 | 0.0 | 1.6 | 0.15 | 0.69 | 0.64 | 95 | 1016.1 |
| 20260901073529 | 23 | 268 | 0.0 | 1.6 | 0.18 | 0.69 | 0.64 | 94 | 1016.1 |
| 20260901072517 | 22 | 56 | 0.0 | 3.2 | 0.18 | 0.69 | 0.64 | 94 | 1016.1 |
| 20260901071517 | 23 | 244 | 0.0 | 3.2 | 0.18 | 0.69 | 0.64 | 94 | 1015.9 |
| 20260901070658 | 23 | 278 | 1.6 | 3.2 | 0.18 | 0.69 | 0.64 | 93 | 1015.9 |
| 20260901065518 | 23 | 294 | 0.0 | 1.6 | 0.18 | 0.69 | 0.64 | 92 | 1015.7 |
| 20260901064520 | 23 | 39 | 3.2 | 8.0 | 0.00 | 0.53 | 0.48 | 92 | 1015.6 |
| 20260901063518 | 23 | 0.0 | 0.0 | 0.00 | 0.51 | 0.48 | 92 | 1015.5 | |
| 20260901062519 | 23 | 0.0 | 0.0 | 0.00 | 0.51 | 0.48 | 92 | 1015.4 | |
| 20260901061836 | 23 | 270 | 0.0 | 3.2 | 0.00 | 0.51 | 0.48 | 91 | 1015.3 |
| 20260901060516 | 23 | 227 | 0.0 | 4.8 | 0.00 | 0.51 | 0.48 | 90 | 1015.3 |
| 20260901055516 | 23 | 266 | 1.6 | 3.2 | 0.00 | 0.51 | 0.48 | 89 | 1015.2 |
| 20260901054516 | 24 | 297 | 0.0 | 4.8 | 0.00 | 0.51 | 0.48 | 87 | 1015.2 |
| 20260901053517 | 24 | 360 | 1.6 | 4.8 | 0.00 | 0.51 | 0.48 | 86 | 1015.2 |
| 20260901052517 | 24 | 76 | 1.6 | 8.0 | 0.00 | 0.51 | 0.48 | 86 | 1015.2 |
| 20260901051517 | 24 | 144 | 0.0 | 1.6 | 0.00 | 0.51 | 0.48 | 87 | 1015.1 |
| 20260901050516 | 24 | 88 | 0.0 | 4.8 | 0.00 | 0.51 | 0.48 | 87 | 1015.0 |
| 20260901045517 | 24 | 47 | 1.6 | 8.0 | 0.00 | 0.51 | 0.48 | 87 | 1014.9 |
| 20260901044517 | 23 | 55 | 1.6 | 6.4 | 0.00 | 0.51 | 0.48 | 88 | 1014.7 |
| 20260901043519 | 23 | 34 | 1.6 | 8.0 | 0.00 | 0.51 | 0.48 | 88 | 1014.6 |
| 20260901042517 | 23 | 39 | 3.2 | 6.4 | 0.00 | 0.51 | 0.48 | 89 | 1014.5 |
| 20260901041517 | 23 | 54 | 1.6 | 8.0 | 0.15 | 0.51 | 0.48 | 90 | 1014.4 |
| 20260901040518 | 23 | 50 | 1.6 | 8.0 | 0.15 | 0.51 | 0.48 | 92 | 1014.3 |
| 20260901035518 | 23 | 246 | 0.0 | 3.2 | 0.15 | 0.51 | 0.48 | 94 | 1014.3 |
| 20260901034518 | 23 | 242 | 0.0 | 1.6 | 0.15 | 0.51 | 0.48 | 94 | 1014.1 |
| 20260901033518 | 23 | 223 | 0.0 | 3.2 | 0.15 | 0.51 | 0.48 | 93 | 1014.1 |
| 20260901032519 | 23 | 224 | 0.0 | 3.2 | 0.15 | 0.51 | 0.46 | 92 | 1014.0 |
| 20260901031518 | 24 | 261 | 0.0 | 0.0 | 0.00 | 0.36 | 0.33 | 92 | 1014.0 |
| 20260901030519 | 24 | 257 | 0.0 | 1.6 | 0.00 | 0.36 | 0.33 | 91 | 1014.0 |
| 20260901025515 | 23 | 269 | 0.0 | 1.6 | 0.13 | 0.36 | 0.33 | 92 | 1014.0 |
| 20260901024516 | 23 | 205 | 0.0 | 1.6 | 0.18 | 0.36 | 0.33 | 93 | 1014.0 |
| 20260901023516 | 23 | 267 | 0.0 | 3.2 | 0.20 | 0.36 | 0.33 | 93 | 1014.0 |
| 20260901022516 | 23 | 250 | 0.0 | 1.6 | 0.20 | 0.36 | 0.33 | 92 | 1014.0 |
| 20260901021517 | 23 | 247 | 0.0 | 3.2 | 0.18 | 0.36 | 0.30 | 93 | 1014.0 |
| 20260901020516 | 23 | 223 | 0.0 | 3.2 | 0.18 | 0.36 | 0.30 | 92 | 1014.0 |
| 20260901015516 | 24 | 240 | 0.0 | 1.6 | 0.05 | 0.23 | 0.18 | 91 | 1013.9 |
| 20260901014517 | 25 | 217 | 1.6 | 4.8 | 0.00 | 0.18 | 0.13 | 88 | 1013.8 |
| 20260901013517 | 25 | 279 | 3.2 | 8.0 | 0.03 | 0.18 | 0.13 | 85 | 1013.7 |
| 20260901012518 | 25 | 298 | 0.0 | 3.2 | 0.08 | 0.18 | 0.13 | 88 | 1013.8 |
| 20260901011517 | 24 | 293 | 1.6 | 4.8 | 0.08 | 0.18 | 0.13 | 89 | 1013.9 |
| 20260901010518 | 24 | 258 | 0.0 | 3.2 | 0.08 | 0.18 | 0.13 | 90 | 1014.0 |
| 20260901005518 | 23 | 265 | 0.0 | 3.2 | 0.08 | 0.18 | 0.13 | 91 | 1014.1 |
| 20260901004519 | 23 | 258 | 0.0 | 3.2 | 0.08 | 0.18 | 0.13 | 91 | 1014.3 |
| 20260901003518 | 24 | 329 | 0.0 | 3.2 | 0.05 | 0.13 | 0.10 | 90 | 1014.4 |
| 20260901002519 | 26 | 357 | 0.0 | 4.8 | 0.03 | 0.10 | 0.05 | 85 | 1014.4 |
| 20260901001518 | 26 | 269 | 1.6 | 6.4 | 0.00 | 0.08 | 0.05 | 80 | 1014.2 |
| 20260901000656 | 25 | 296 | 1.6 | 4.8 | 0.00 | 0.08 | 0.05 | 85 | 1014.3 |
| 20260831235516 | 25 | 306 | 1.6 | 4.8 | 0.00 | 0.08 | 0.05 | 85 | 1014.4 |
| 20260831234519 | 26 | 0 | 1.6 | 4.8 | 0.00 | 0.08 | 0.05 | 80 | 1014.6 |
| 20260831233516 | 27 | 44 | 0.0 | 3.2 | 0.00 | 0.08 | 0.05 | 76 | 1014.5 |
| 20260831232516 | 27 | 26 | 1.6 | 4.8 | 0.00 | 0.08 | 0.05 | 76 | 1014.4 |
| 20260831231517 | 27 | 357 | 1.6 | 8.0 | 0.00 | 0.08 | 0.05 | 74 | 1014.5 |
| 20260831230516 | 27 | 306 | 1.6 | 6.4 | 0.00 | 0.08 | 0.05 | 75 | 1014.7 |
| 20260831225516 | 27 | 310 | 1.6 | 6.4 | 0.00 | 0.08 | 0.05 | 78 | 1014.8 |
| 20260831224517 | 26 | 294 | 1.6 | 6.4 | 0.00 | 0.08 | 0.05 | 78 | 1015.0 |
| 20260831223517 | 26 | 317 | 3.2 | 8.0 | 0.00 | 0.08 | 0.05 | 79 | 1015.2 |
| 20260831222518 | 26 | 264 | 0.0 | 1.6 | 0.00 | 0.08 | 0.05 | 78 | 1015.3 |
| 20260831221517 | 26 | 352 | 1.6 | 4.8 | 0.00 | 0.08 | 0.05 | 76 | 1015.4 |
| 20260831220517 | 26 | 319 | 1.6 | 6.4 | 0.00 | 0.08 | 0.05 | 74 | 1015.5 |
| 20260831215518 | 25 | 337 | 1.6 | 6.4 | 0.00 | 0.08 | 0.05 | 78 | 1015.7 |
| 20260831214701 | 25 | 350 | 4.8 | 9.7 | 0.00 | 0.08 | 0.05 | 81 | 1015.8 |
| 20260831213518 | 26 | 23 | 4.8 | 8.0 | 0.00 | 0.08 | 0.05 | 78 | 1015.8 |
| 20260831212517 | 26 | 350 | 3.2 | 6.4 | 0.00 | 0.08 | 0.05 | 79 | 1015.8 |
| 20260831211518 | 25 | 357 | 4.8 | 11.3 | 0.00 | 0.08 | 0.05 | 81 | 1015.8 |
| 20260831210659 | 25 | 107 | 3.2 | 6.4 | 0.00 | 0.08 | 0.05 | 84 | 1016.0 |
| 20260831205516 | 25 | 108 | 3.2 | 8.0 | 0.00 | 0.08 | 0.05 | 82 | 1016.0 |
| 20260831204516 | 26 | 102 | 3.2 | 6.4 | 0.00 | 0.08 | 0.05 | 79 | 1016.0 |
| 20260831203516 | 26 | 35 | 1.6 | 4.8 | 0.00 | 0.08 | 0.05 | 81 | 1016.1 |
| 20260831202516 | 26 | 53 | 3.2 | 6.4 | 0.00 | 0.08 | 0.05 | 80 | 1016.2 |
| 20260831201516 | 26 | 145 | 0.0 | 3.2 | 0.00 | 0.08 | 0.05 | 79 | 1016.1 |
| 20260831200657 | 25 | 196 | 0.0 | 3.2 | 0.00 | 0.08 | 0.05 | 84 | 1016.2 |
| 20260831195516 | 24 | 208 | 0.0 | 3.2 | 0.00 | 0.08 | 0.05 | 87 | 1016.3 |
| 20260831194657 | 23 | 159 | 0.0 | 1.6 | 0.00 | 0.08 | 0.05 | 91 | 1016.3 |
| 20260831193525 | 23 | 164 | 0.0 | 1.6 | 0.00 | 0.08 | 0.05 | 91 | 1016.5 |
| 20260831192706 | 22 | 205 | 1.6 | 3.2 | 0.00 | 0.08 | 0.05 | 92 | 1016.6 |
| 20260831191526 | 22 | 79 | 3.2 | 4.8 | 0.00 | 0.08 | 0.05 | 91 | 1016.6 |
| 20260831190526 | 23 | 61 | 3.2 | 8.0 | 0.00 | 0.08 | 0.03 | 92 | 1016.6 |
| 20260831185517 | 23 | 46 | 3.2 | 11.3 | 0.03 | 0.10 | 0.03 | 89 | 1016.5 |
| 20260831184706 | 23 | 63 | 0.0 | 1.6 | 0.03 | 0.10 | 0.03 | 91 | 1016.4 |
| 20260831183527 | 23 | 37 | 1.6 | 6.4 | 0.03 | 0.10 | 0.03 | 91 | 1016.2 |
| 20260831182526 | 23 | 0.0 | 0.0 | 0.03 | 0.10 | 0.03 | 91 | 1016.1 | |
| 20260831181526 | 23 | 198 | 0.0 | 1.6 | 0.03 | 0.10 | 0.03 | 88 | 1016.1 |
| 20260831180527 | 23 | 192 | 0.0 | 1.6 | 0.03 | 0.10 | 0.03 | 88 | 1016.0 |
| 20260831175707 | 23 | 0.0 | 0.0 | 0.00 | 0.10 | 0.00 | 88 | 1015.9 | |
| 20260831174527 | 23 | 0.0 | 0.0 | 0.00 | 0.10 | 0.00 | 88 | 1015.9 | |
| 20260831173527 | 23 | 200 | 0.0 | 1.6 | 0.00 | 0.10 | 0.00 | 89 | 1015.8 |
| 20260831172527 | 23 | 0.0 | 0.0 | 0.00 | 0.10 | 0.00 | 90 | 1015.7 | |
| 20260831171528 | 22 | 0.0 | 0.0 | 0.00 | 0.10 | 0.00 | 91 | 1015.7 | |
| 20260831170528 | 22 | 0.0 | 0.0 | 0.00 | 0.10 | 0.00 | 91 | 1015.6 | |
| 20260831165529 | 22 | 0.0 | 0.0 | 0.00 | 0.10 | 0.00 | 92 | 1015.5 | |
| 20260831164529 | 22 | 0.0 | 0.0 | 0.00 | 0.10 | 0.00 | 92 | 1015.5 | |
| 20260831163529 | 22 | 0.0 | 0.0 | 0.00 | 0.10 | 0.00 | 91 | 1015.6 | |
| 20260831162529 | 22 | 189 | 0.0 | 1.6 | 0.00 | 0.10 | 0.00 | 92 | 1015.5 |
| 20260831161529 | 22 | 0.0 | 0.0 | 0.00 | 0.10 | 0.00 | 91 | 1015.4 | |
| 20260831160529 | 22 | 0.0 | 0.0 | 0.00 | 0.10 | 0.00 | 92 | 1015.3 | |
| 20260831155529 | 22 | 0.0 | 0.0 | 0.00 | 0.10 | 0.00 | 90 | 1015.2 | |
| 20260831154709 | 22 | 253 | 0.0 | 1.6 | 0.00 | 0.10 | 0.00 | 90 | 1015.1 |
| 20260831153530 | 22 | 198 | 1.6 | 3.2 | 0.00 | 0.10 | 0.00 | 90 | 1015.1 |
| 20260831152709 | 22 | 0.0 | 0.0 | 0.00 | 0.10 | 0.00 | 91 | 1015.1 | |
| 20260831151529 | 22 | 0.0 | 0.0 | 0.00 | 0.10 | 0.00 | 91 | 1015.0 | |
| 20260831150529 | 22 | 215 | 0.0 | 1.6 | 0.00 | 0.10 | 0.00 | 91 | 1014.9 |
| 20260831145530 | 22 | 0.0 | 0.0 | 0.00 | 0.10 | 0.00 | 91 | 1014.9 | |
| 20260831144530 | 22 | 224 | 0.0 | 1.6 | 0.00 | 0.10 | 0.00 | 91 | 1014.8 |
| 20260831143530 | 22 | 231 | 0.0 | 0.0 | 0.00 | 0.10 | 0.00 | 91 | 1014.7 |
| 20260831142530 | 22 | 0.0 | 0.0 | 0.00 | 0.10 | 0.00 | 91 | 1014.7 | |
| 20260831141712 | 22 | 0.0 | 0.0 | 0.00 | 0.10 | 0.00 | 91 | 1014.7 | |
| 20260831140531 | 22 | 0.0 | 0.0 | 0.00 | 0.10 | 0.00 | 91 | 1014.7 | |
| 20260831135837 | 22 | 0.0 | 0.0 | 0.00 | 0.10 | 0.00 | 92 | 1014.7 | |
| 20260831134516 | 22 | 229 | 0.0 | 1.6 | 0.00 | 0.10 | 0.00 | 92 | 1014.7 |
| 20260831133516 | 22 | 0.0 | 0.0 | 0.00 | 0.10 | 0.00 | 91 | 1014.7 | |
| 20260831132517 | 22 | 0.0 | 0.0 | 0.00 | 0.10 | 0.00 | 92 | 1014.8 | |
| 20260831131516 | 22 | 272 | 0.0 | 1.6 | 0.00 | 0.10 | 0.00 | 93 | 1014.9 |
| 20260831130657 | 22 | 227 | 0.0 | 1.6 | 0.00 | 0.10 | 0.00 | 93 | 1014.9 |
| 20260831125657 | 21 | 189 | 0.0 | 1.6 | 0.00 | 0.10 | 0.00 | 93 | 1015.0 |
| 20260831124517 | 21 | 0.0 | 0.0 | 0.00 | 0.10 | 0.00 | 94 | 1015.1 | |
| 20260831123517 | 21 | 210 | 0.0 | 1.6 | 0.00 | 0.10 | 0.00 | 93 | 1015.2 |
| 20260831122517 | 21 | 264 | 0.0 | 1.6 | 0.00 | 0.10 | 0.00 | 94 | 1015.4 |